Location: Arrien
(43.3167°N, 0.1500°W)
Time: 16:59:11
(UTC+00:00)

Cosmos 1544 Rocket - Pass Details

Date: 01 June 2022
Orbit: 603 x 631 km, 82.5° (Epoch: 29 June)

Event Time Altitude Azimuth Distance (km) Brightness Sun altitude
Rises 23:47:01 0° 8° (N) 2,902 8.3 -24.5°
Reaches altitude 10° 23:50:01 10° 29° (NNE) 1,984 6.9 -24.5°
Maximum altitude 23:52:49 16° 69° (ENE) 1,592 5.8 -24.5°
Enters shadow 23:54:03 15° 89° (E) 1,670 5.7 -24.5°
